Time,TemperatureF,DewpointF,PressureIn,WindDirection,WindDirectionDegrees,WindSpeedMPH,WindSpeedGustMPH,Humidity,HourlyPrecipIn,Conditions,Clouds,dailyrainin,SoftwareType,DateUTC
2013-02-15 00:00:00,50.6,35.8,29.49,SSE,158,0.7,1.1,57,0.00,,,0.00,WUHU216HW,2013-02-15 06:00:00,
2013-02-15 00:05:00,50.4,35.7,29.49,SSE,158,0.9,1.1,57,0.00,,,0.00,WUHU216HW,2013-02-15 06:05:00,
2013-02-15 00:10:00,50.0,35.8,29.49,SSW,203,1.8,1.8,58,0.00,,,0.00,WUHU216HW,2013-02-15 06:10:00,
2013-02-15 00:15:00,49.9,35.6,29.50,SE,135,0.0,1.8,58,0.00,,,0.00,WUHU216HW,2013-02-15 06:15:00,
2013-02-15 00:20:00,49.7,35.5,29.50,South,180,0.9,1.8,58,0.00,,,0.00,WUHU216HW,2013-02-15 06:20:00,
2013-02-15 00:25:00,49.5,35.8,29.50,SSE,158,0.9,2.0,59,0.00,,,0.00,WUHU216HW,2013-02-15 06:25:00,
2013-02-15 00:30:00,49.3,35.7,29.50,SSE,158,0.4,2.0,59,0.00,,,0.00,WUHU216HW,2013-02-15 06:30:00,
2013-02-15 00:35:00,49.1,35.9,29.50,South,180,0.4,1.3,60,0.00,,,0.00,WUHU216HW,2013-02-15 06:35:00,
2013-02-15 00:40:00,49.0,35.7,29.50,South,180,0.0,1.3,60,0.00,,,0.00,WUHU216HW,2013-02-15 06:40:00,
2013-02-15 00:45:00,48.8,36.0,29.50,SSE,158,0.0,0.4,61,0.00,,,0.00,WUHU216HW,2013-02-15 06:45:00,
2013-02-15 00:50:00,48.6,35.8,29.50,NNE,23,0.0,0.0,61,0.00,,,0.00,WUHU216HW,2013-02-15 06:50:00,
2013-02-15 00:56:00,48.2,35.5,29.50,ESE,113,0.0,0.0,61,0.00,,,0.00,WUHU216HW,2013-02-15 06:56:00,
2013-02-15 01:01:00,47.9,35.1,29.50,ESE,113,0.9,0.9,61,0.00,,,0.00,WUHU216HW,2013-02-15 07:01:00,
2013-02-15 01:06:00,47.9,35.1,29.50,East,90,0.4,1.1,61,0.00,,,0.00,WUHU216HW,2013-02-15 07:06:00,
2013-02-15 01:11:00,47.7,34.9,29.50,SE,135,0.4,1.1,61,0.00,,,0.00,WUHU216HW,2013-02-15 07:11:00,
2013-02-15 01:16:00,47.5,35.2,29.50,SSE,158,0.7,0.7,62,0.00,,,0.00,WUHU216HW,2013-02-15 07:16:00,
2013-02-15 01:21:00,47.3,35.4,29.50,South,180,0.4,0.9,63,0.00,,,0.00,WUHU216HW,2013-02-15 07:21:00,
2013-02-15 01:26:00,47.3,35.4,29.50,SSW,203,0.4,0.9,63,0.00,,,0.00,WUHU216HW,2013-02-15 07:26:00,
2013-02-15 01:31:00,47.3,35.4,29.50,SE,135,0.0,0.4,63,0.00,,,0.00,WUHU216HW,2013-02-15 07:31:00,
2013-02-15 01:36:00,47.2,35.2,29.51,East,90,0.0,0.0,63,0.00,,,0.00,WUHU216HW,2013-02-15 07:36:00,
2013-02-15 01:41:00,47.0,35.0,29.51,ENE,68,0.2,0.4,63,0.00,,,0.00,WUHU216HW,2013-02-15 07:41:00,
2013-02-15 01:46:00,46.4,34.5,29.51,ESE,113,0.0,0.4,63,0.00,,,0.00,WUHU216HW,2013-02-15 07:46:00,
2013-02-15 01:51:00,46.4,34.5,29.51,NNW,338,0.0,0.0,63,0.00,,,0.00,WUHU216HW,2013-02-15 07:51:00,
2013-02-15 01:56:00,46.1,34.6,29.51,North,0,0.0,0.0,64,0.00,,,0.00,WUHU216HW,2013-02-15 07:56:00,
2013-02-15 02:01:00,46.1,34.6,29.51,ENE,68,0.0,0.0,64,0.00,,,0.00,WUHU216HW,2013-02-15 08:01:00,
2013-02-15 02:07:00,45.9,34.7,29.51,ESE,113,0.7,0.7,65,0.00,,,0.00,WUHU216HW,2013-02-15 08:07:00,
2013-02-15 02:12:00,45.7,34.2,29.51,WNW,293,0.0,0.7,64,0.00,,,0.00,WUHU216HW,2013-02-15 08:12:00,
2013-02-15 02:17:00,45.7,34.6,29.51,WNW,293,0.0,0.2,65,0.00,,,0.00,WUHU216HW,2013-02-15 08:17:00,
2013-02-15 02:22:00,45.7,35.0,29.51,NW,315,0.0,0.0,66,0.00,,,0.00,WUHU216HW,2013-02-15 08:22:00,
2013-02-15 02:27:00,45.5,34.8,29.51,NW,315,0.0,0.0,66,0.00,,,0.00,WUHU216HW,2013-02-15 08:27:00,
2013-02-15 02:32:00,45.5,34.8,29.51,NW,315,0.0,0.0,66,0.00,,,0.00,WUHU216HW,2013-02-15 08:32:00,
2013-02-15 02:37:00,45.4,34.7,29.51,NNE,23,0.0,0.0,66,0.00,,,0.00,WUHU216HW,2013-02-15 08:37:00,
2013-02-15 02:42:00,45.0,34.7,29.51,ESE,113,0.0,0.0,67,0.00,,,0.00,WUHU216HW,2013-02-15 08:42:00,
2013-02-15 02:47:00,44.8,34.5,29.50,SE,135,0.4,0.9,67,0.00,,,0.00,WUHU216HW,2013-02-15 08:47:00,
2013-02-15 02:52:00,44.5,34.2,29.50,SE,135,0.9,0.9,67,0.00,,,0.00,WUHU216HW,2013-02-15 08:52:00,
2013-02-15 02:57:00,44.1,34.2,29.50,ESE,113,0.7,0.9,68,0.00,,,0.00,WUHU216HW,2013-02-15 08:57:00,
2013-02-15 03:02:00,43.9,34.0,29.50,East,90,0.4,1.1,68,0.00,,,0.00,WUHU216HW,2013-02-15 09:02:00,
2013-02-15 03:08:00,43.7,33.8,29.50,SE,135,0.7,1.1,68,0.00,,,0.00,WUHU216HW,2013-02-15 09:08:00,
2013-02-15 03:13:00,43.6,34.1,29.51,SE,135,1.1,1.1,69,0.00,,,0.00,WUHU216HW,2013-02-15 09:13:00,
2013-02-15 03:18:00,43.4,33.9,29.50,SE,135,1.1,1.6,69,0.00,,,0.00,WUHU216HW,2013-02-15 09:18:00,
2013-02-15 03:23:00,43.4,33.9,29.50,ESE,113,1.3,1.6,69,0.00,,,0.00,WUHU216HW,2013-02-15 09:23:00,
2013-02-15 03:28:00,43.4,34.3,29.51,SE,135,0.7,1.3,70,0.00,,,0.00,WUHU216HW,2013-02-15 09:28:00,
2013-02-15 03:33:00,43.6,34.5,29.51,ESE,113,1.1,1.3,70,0.00,,,0.00,WUHU216HW,2013-02-15 09:33:00,
2013-02-15 03:38:00,43.6,34.5,29.51,ESE,113,0.0,1.6,70,0.00,,,0.00,WUHU216HW,2013-02-15 09:38:00,
2013-02-15 03:43:00,43.6,34.5,29.51,ESE,113,1.1,1.6,70,0.00,,,0.00,WUHU216HW,2013-02-15 09:43:00,
2013-02-15 03:48:00,43.6,34.5,29.51,ESE,113,1.1,1.3,70,0.00,,,0.00,WUHU216HW,2013-02-15 09:48:00,
2013-02-15 03:54:00,43.6,34.8,29.51,ESE,113,0.4,1.3,71,0.00,,,0.00,WUHU216HW,2013-02-15 09:54:00,
2013-02-15 03:59:00,43.6,34.5,29.51,ESE,113,0.4,1.1,70,0.00,,,0.00,WUHU216HW,2013-02-15 09:59:00,
2013-02-15 04:04:00,43.4,34.3,29.52,East,90,1.3,1.3,70,0.00,,,0.00,WUHU216HW,2013-02-15 10:04:00,
2013-02-15 04:09:00,43.0,34.3,29.52,ESE,113,0.4,1.3,71,0.00,,,0.00,WUHU216HW,2013-02-15 10:09:00,
2013-02-15 04:14:00,42.8,33.8,29.52,ESE,113,1.1,1.6,70,0.00,,,0.00,WUHU216HW,2013-02-15 10:14:00,
2013-02-15 04:19:00,42.7,33.7,29.52,SE,135,1.3,1.6,70,0.00,,,0.00,WUHU216HW,2013-02-15 10:19:00,
2013-02-15 04:24:00,42.7,34.0,29.51,ESE,113,1.3,1.6,71,0.00,,,0.00,WUHU216HW,2013-02-15 10:24:00,
2013-02-15 04:29:00,42.5,33.9,29.51,ESE,113,1.6,1.8,71,0.00,,,0.00,WUHU216HW,2013-02-15 10:29:00,
2013-02-15 04:34:00,42.5,33.9,29.51,SE,135,1.1,1.8,71,0.00,,,0.00,WUHU216HW,2013-02-15 10:34:00,
2013-02-15 04:39:00,42.3,33.7,29.51,SE,135,0.9,1.8,71,0.00,,,0.00,WUHU216HW,2013-02-15 10:39:00,
2013-02-15 04:44:00,42.3,33.7,29.51,SE,135,0.2,1.8,71,0.00,,,0.00,WUHU216HW,2013-02-15 10:44:00,
2013-02-15 04:49:00,42.1,33.5,29.52,ESE,113,0.9,0.9,71,0.00,,,0.00,WUHU216HW,2013-02-15 10:49:00,
2013-02-15 04:54:00,41.9,33.6,29.52,SE,135,1.3,1.3,72,0.00,,,0.00,WUHU216HW,2013-02-15 10:54:00,
2013-02-15 04:59:00,41.9,33.6,29.52,ESE,113,1.1,2.0,72,0.00,,,0.00,WUHU216HW,2013-02-15 10:59:00,
2013-02-15 05:04:00,41.9,33.6,29.52,East,90,0.9,2.0,72,0.00,,,0.00,WUHU216HW,2013-02-15 11:04:00,
2013-02-15 05:09:00,41.8,33.8,29.52,ESE,113,0.9,1.6,73,0.00,,,0.00,WUHU216HW,2013-02-15 11:09:00,
2013-02-15 05:14:00,41.8,34.0,29.52,SE,135,1.6,1.6,74,0.00,,,0.00,WUHU216HW,2013-02-15 11:14:00,
2013-02-15 05:19:00,41.8,34.0,29.52,SE,135,0.4,1.6,74,0.00,,,0.00,WUHU216HW,2013-02-15 11:19:00,
2013-02-15 05:24:00,41.9,34.2,29.52,ENE,68,1.6,1.6,74,0.00,,,0.00,WUHU216HW,2013-02-15 11:24:00,
2013-02-15 05:29:00,41.9,34.6,29.52,ENE,68,0.4,1.6,75,0.00,,,0.00,WUHU216HW,2013-02-15 11:29:00,
2013-02-15 05:34:00,41.9,34.6,29.53,ENE,68,1.1,1.1,75,0.00,,,0.00,WUHU216HW,2013-02-15 11:34:00,
2013-02-15 05:39:00,41.9,34.6,29.53,East,90,0.4,1.1,75,0.00,,,0.00,WUHU216HW,2013-02-15 11:39:00,
2013-02-15 05:45:00,41.8,34.8,29.53,ESE,113,0.2,0.9,76,0.00,,,0.00,WUHU216HW,2013-02-15 11:45:00,
2013-02-15 05:50:00,41.9,34.6,29.53,North,0,0.4,0.7,75,0.00,,,0.00,WUHU216HW,2013-02-15 11:50:00,
2013-02-15 05:55:00,41.9,34.6,29.53,ENE,68,0.2,0.7,75,0.00,,,0.00,WUHU216HW,2013-02-15 11:55:00,
2013-02-15 06:00:00,41.9,34.2,29.54,ESE,113,0.2,0.4,74,0.00,,,0.00,WUHU216HW,2013-02-15 12:00:00,
2013-02-15 06:05:00,41.8,34.0,29.54,NE,45,0.0,0.4,74,0.00,,,0.00,WUHU216HW,2013-02-15 12:05:00,
2013-02-15 06:10:00,41.8,34.4,29.54,ENE,68,1.3,1.3,75,0.00,,,0.00,WUHU216HW,2013-02-15 12:10:00,
2013-02-15 06:15:00,41.6,34.6,29.55,ENE,68,1.8,3.1,76,0.00,,,0.00,WUHU216HW,2013-02-15 12:15:00,
2013-02-15 06:20:00,41.4,34.0,29.55,East,90,1.1,3.1,75,0.00,,,0.00,WUHU216HW,2013-02-15 12:20:00,
2013-02-15 06:25:00,41.0,33.7,29.56,NE,45,1.1,2.0,75,0.00,,,0.00,WUHU216HW,2013-02-15 12:25:00,
2013-02-15 06:30:00,40.9,34.1,29.56,ESE,113,2.0,2.2,77,0.00,,,0.00,WUHU216HW,2013-02-15 12:30:00,
2013-02-15 06:35:00,40.9,33.9,29.55,SE,135,1.3,2.2,76,0.00,,,0.00,WUHU216HW,2013-02-15 12:35:00,
2013-02-15 06:40:00,40.9,34.1,29.56,ESE,113,2.0,2.2,77,0.00,,,0.00,WUHU216HW,2013-02-15 12:40:00,
2013-02-15 06:45:00,41.0,34.3,29.56,SE,135,1.8,2.2,77,0.00,,,0.00,WUHU216HW,2013-02-15 12:45:00,
2013-02-15 06:50:00,41.0,34.3,29.56,ESE,113,0.7,1.8,77,0.00,,,0.00,WUHU216HW,2013-02-15 12:50:00,
2013-02-15 06:55:00,41.2,34.5,29.56,East,90,0.9,1.1,77,0.00,,,0.00,WUHU216HW,2013-02-15 12:55:00,
2013-02-15 07:01:00,41.0,34.3,29.56,SE,135,1.3,1.3,77,0.00,,,0.00,WUHU216HW,2013-02-15 13:01:00,
2013-02-15 07:06:00,41.0,34.3,29.56,SE,135,0.0,1.6,77,0.00,,,0.00,WUHU216HW,2013-02-15 13:06:00,
2013-02-15 07:11:00,41.0,34.3,29.56,East,90,1.1,1.8,77,0.00,,,0.00,WUHU216HW,2013-02-15 13:11:00,
2013-02-15 07:16:00,40.9,34.5,29.57,ESE,113,1.3,1.8,78,0.00,,,0.00,WUHU216HW,2013-02-15 13:16:00,
2013-02-15 07:21:00,40.7,34.3,29.57,East,90,1.1,1.8,78,0.00,,,0.00,WUHU216HW,2013-02-15 13:21:00,
2013-02-15 07:26:00,40.7,34.3,29.58,ENE,68,1.1,1.6,78,0.00,,,0.00,WUHU216HW,2013-02-15 13:26:00,
2013-02-15 07:31:00,40.5,34.1,29.59,ENE,68,0.0,1.8,78,0.00,,,0.00,WUHU216HW,2013-02-15 13:31:00,
2013-02-15 07:36:00,40.9,36.0,29.60,NNE,23,1.8,1.8,83,0.00,,,0.00,WUHU216HW,2013-02-15 13:36:00,
2013-02-15 07:42:00,41.4,36.3,29.60,North,0,0.7,1.8,82,0.00,,,0.00,WUHU216HW,2013-02-15 13:42:00,
2013-02-15 07:47:00,42.1,37.9,29.60,NE,45,0.7,1.8,85,0.00,,,0.00,WUHU216HW,2013-02-15 13:47:00,
2013-02-15 07:52:00,42.8,38.6,29.60,NE,45,1.6,2.0,85,0.00,,,0.00,WUHU216HW,2013-02-15 13:52:00,
2013-02-15 07:57:00,43.9,39.7,29.60,NNE,23,1.3,2.0,85,0.00,,,0.00,WUHU216HW,2013-02-15 13:57:00,
2013-02-15 08:02:00,44.5,39.6,29.61,North,0,0.9,1.8,83,0.00,,,0.00,WUHU216HW,2013-02-15 14:02:00,
2013-02-15 08:07:00,44.8,39.7,29.60,NNE,23,1.1,1.8,82,0.00,,,0.00,WUHU216HW,2013-02-15 14:07:00,
2013-02-15 08:12:00,45.4,40.2,29.61,NE,45,1.8,1.8,82,0.00,,,0.00,WUHU216HW,2013-02-15 14:12:00,
2013-02-15 08:17:00,45.7,40.6,29.61,NNE,23,1.8,1.8,82,0.00,,,0.00,WUHU216HW,2013-02-15 14:17:00,
2013-02-15 08:22:00,46.3,41.1,29.61,NNE,23,1.3,2.5,82,0.00,,,0.00,WUHU216HW,2013-02-15 14:22:00,
2013-02-15 08:27:00,46.6,41.1,29.61,North,0,3.1,3.4,81,0.00,,,0.00,WUHU216HW,2013-02-15 14:27:00,
2013-02-15 08:32:00,47.2,41.3,29.62,North,0,0.9,3.4,80,0.00,,,0.00,WUHU216HW,2013-02-15 14:32:00,
2013-02-15 08:37:00,47.5,41.7,29.62,NW,315,0.7,3.1,80,0.00,,,0.00,WUHU216HW,2013-02-15 14:37:00,
2013-02-15 08:43:00,47.9,41.9,29.62,North,0,1.6,2.7,80,0.00,,,0.00,WUHU216HW,2013-02-15 14:43:00,
2013-02-15 08:48:00,48.2,42.3,29.62,NNE,23,2.5,2.5,80,0.00,,,0.00,WUHU216HW,2013-02-15 14:48:00,
2013-02-15 08:53:00,49.0,42.7,29.62,NNE,23,1.6,3.1,79,0.00,,,0.00,WUHU216HW,2013-02-15 14:53:00,
2013-02-15 08:58:00,49.5,42.8,29.63,NNE,23,2.7,3.1,78,0.00,,,0.00,WUHU216HW,2013-02-15 14:58:00,
2013-02-15 09:03:00,50.0,43.1,29.63,North,0,3.1,4.3,77,0.00,,,0.00,WUHU216HW,2013-02-15 15:03:00,
2013-02-15 09:08:00,50.8,43.1,29.63,North,0,4.0,4.3,75,0.00,,,0.00,WUHU216HW,2013-02-15 15:08:00,
2013-02-15 09:13:00,51.1,43.1,29.63,North,0,3.4,4.0,74,0.00,,,0.00,WUHU216HW,2013-02-15 15:13:00,
2013-02-15 09:18:00,51.7,43.0,29.63,NNW,338,2.5,3.8,72,0.00,,,0.00,WUHU216HW,2013-02-15 15:18:00,
2013-02-15 09:23:00,52.4,42.9,29.63,NW,315,5.6,5.6,70,0.00,,,0.00,WUHU216HW,2013-02-15 15:23:00,
2013-02-15 09:28:00,53.3,43.4,29.63,North,0,4.5,5.6,69,0.00,,,0.00,WUHU216HW,2013-02-15 15:28:00,
2013-02-15 09:33:00,53.6,43.8,29.63,North,0,3.1,4.9,69,0.00,,,0.00,WUHU216HW,2013-02-15 15:33:00,
2013-02-15 09:38:00,54.4,44.0,29.63,North,0,3.4,5.6,68,0.00,,,0.00,WUHU216HW,2013-02-15 15:38:00,
2013-02-15 09:43:00,55.1,44.3,29.64,NNE,23,2.7,5.6,67,0.00,,,0.00,WUHU216HW,2013-02-15 15:43:00,
2013-02-15 09:48:00,55.4,43.4,29.64,NNE,23,3.4,4.5,64,0.00,,,0.00,WUHU216HW,2013-02-15 15:48:00,
2013-02-15 09:53:00,55.8,44.2,29.64,ENE,68,4.0,4.5,65,0.00,,,0.00,WUHU216HW,2013-02-15 15:53:00,
2013-02-15 09:58:00,56.5,43.7,29.64,NNE,23,4.3,6.0,62,0.00,,,0.00,WUHU216HW,2013-02-15 15:58:00,
2013-02-15 10:03:00,56.7,43.8,29.64,North,0,3.6,6.0,62,0.00,,,0.00,WUHU216HW,2013-02-15 16:03:00,
2013-02-15 10:08:00,56.9,43.6,29.64,NNE,23,4.3,5.6,61,0.00,,,0.00,WUHU216HW,2013-02-15 16:08:00,
2013-02-15 10:14:00,57.1,43.4,29.64,NE,45,4.5,5.6,60,0.00,,,0.00,WUHU216HW,2013-02-15 16:14:00,
2013-02-15 10:19:00,57.2,43.6,29.64,NNW,338,4.7,4.9,60,0.00,,,0.00,WUHU216HW,2013-02-15 16:19:00,
2013-02-15 10:24:00,57.4,43.3,29.64,NNE,23,3.4,4.7,59,0.00,,,0.00,WUHU216HW,2013-02-15 16:24:00,
2013-02-15 10:29:00,58.0,43.3,29.64,NNE,23,3.4,4.7,58,0.00,,,0.00,WUHU216HW,2013-02-15 16:29:00,
2013-02-15 10:34:00,58.1,43.5,29.64,NE,45,2.0,4.5,58,0.00,,,0.00,WUHU216HW,2013-02-15 16:34:00,
2013-02-15 10:39:00,58.5,43.3,29.64,North,0,1.3,4.9,57,0.00,,,0.00,WUHU216HW,2013-02-15 16:39:00,
2013-02-15 10:44:00,58.7,43.5,29.64,NE,45,3.6,4.9,57,0.00,,,0.00,WUHU216HW,2013-02-15 16:44:00,
2013-02-15 10:49:00,59.0,43.3,29.64,North,0,3.1,4.7,56,0.00,,,0.00,WUHU216HW,2013-02-15 16:49:00,
2013-02-15 10:54:00,59.2,42.6,29.64,NE,45,2.9,4.7,54,0.00,,,0.00,WUHU216HW,2013-02-15 16:54:00,
2013-02-15 10:59:00,59.6,42.0,29.65,North,0,3.8,4.0,52,0.00,,,0.00,WUHU216HW,2013-02-15 16:59:00,
2013-02-15 11:04:00,59.6,42.0,29.65,NNW,338,2.5,4.0,52,0.00,,,0.00,WUHU216HW,2013-02-15 17:04:00,
2013-02-15 11:09:00,59.8,42.6,29.65,North,0,2.0,4.0,53,0.00,,,0.00,WUHU216HW,2013-02-15 17:09:00,
2013-02-15 11:14:00,60.1,42.4,29.64,North,0,1.8,4.5,52,0.00,,,0.00,WUHU216HW,2013-02-15 17:14:00,
2013-02-15 11:19:00,60.7,41.9,29.64,NNW,338,2.5,4.5,50,0.00,,,0.00,WUHU216HW,2013-02-15 17:19:00,
2013-02-15 11:24:00,60.8,42.6,29.64,NE,45,1.6,4.0,51,0.00,,,0.00,WUHU216HW,2013-02-15 17:24:00,
2013-02-15 11:29:00,61.2,42.9,29.64,ENE,68,2.9,4.0,51,0.00,,,0.00,WUHU216HW,2013-02-15 17:29:00,
2013-02-15 11:34:00,61.6,43.3,29.64,NE,45,1.6,3.6,51,0.00,,,0.00,WUHU216HW,2013-02-15 17:34:00,
2013-02-15 11:39:00,62.1,42.7,29.64,NE,45,2.5,2.5,49,0.00,,,0.00,WUHU216HW,2013-02-15 17:39:00,
2013-02-15 11:44:00,62.1,40.4,29.63,ENE,68,2.5,4.7,45,0.00,,,0.00,WUHU216HW,2013-02-15 17:44:00,
2013-02-15 11:49:00,61.9,40.8,29.63,NNW,338,2.9,7.4,46,0.00,,,0.00,WUHU216HW,2013-02-15 17:49:00,
2013-02-15 11:54:00,61.7,40.1,29.63,North,0,2.9,7.4,45,0.00,,,0.00,WUHU216HW,2013-02-15 17:54:00,
2013-02-15 11:59:00,61.9,39.6,29.63,North,0,1.3,4.7,44,0.00,,,0.00,WUHU216HW,2013-02-15 17:59:00,
2013-02-15 12:04:00,62.1,39.3,29.63,North,0,2.5,4.5,43,0.00,,,0.00,WUHU216HW,2013-02-15 18:04:00,
2013-02-15 12:09:00,62.3,39.4,29.63,NNW,338,1.8,4.5,43,0.00,,,0.00,WUHU216HW,2013-02-15 18:09:00,
2013-02-15 12:14:00,62.8,40.4,29.62,SE,135,1.1,4.5,44,0.00,,,0.00,WUHU216HW,2013-02-15 18:14:00,
2013-02-15 12:19:00,63.2,40.8,29.62,North,0,2.5,4.5,44,0.00,,,0.00,WUHU216HW,2013-02-15 18:19:00,
2013-02-15 12:25:00,63.5,39.3,29.62,NNE,23,2.5,4.3,41,0.00,,,0.00,WUHU216HW,2013-02-15 18:25:00,
2013-02-15 12:30:00,63.9,39.7,29.62,NNE,23,1.6,2.5,41,0.00,,,0.00,WUHU216HW,2013-02-15 18:30:00,
2013-02-15 12:35:00,64.1,38.5,29.61,North,0,2.9,4.7,39,0.00,,,0.00,WUHU216HW,2013-02-15 18:35:00,
2013-02-15 12:40:00,63.9,38.4,29.61,North,0,3.6,4.7,39,0.00,,,0.00,WUHU216HW,2013-02-15 18:40:00,
2013-02-15 12:45:00,64.1,39.9,29.60,NW,315,0.4,4.0,41,0.00,,,0.00,WUHU216HW,2013-02-15 18:45:00,
2013-02-15 12:50:00,64.4,39.6,29.60,NNE,23,2.0,4.5,40,0.00,,,0.00,WUHU216HW,2013-02-15 18:50:00,
2013-02-15 12:55:00,64.6,39.8,29.60,ENE,68,2.5,4.5,40,0.00,,,0.00,WUHU216HW,2013-02-15 18:55:00,
2013-02-15 13:00:00,64.6,37.6,29.60,NNE,23,2.7,3.6,37,0.00,,,0.00,WUHU216HW,2013-02-15 19:00:00,
2013-02-15 13:05:00,64.8,38.5,29.60,North,0,3.1,3.6,38,0.00,,,0.00,WUHU216HW,2013-02-15 19:05:00,
2013-02-15 13:10:00,65.2,38.1,29.60,NNW,338,3.4,3.4,37,0.00,,,0.00,WUHU216HW,2013-02-15 19:10:00,
2013-02-15 13:15:00,65.2,38.1,29.60,SW,225,1.1,4.9,37,0.00,,,0.00,WUHU216HW,2013-02-15 19:15:00,
2013-02-15 13:20:00,65.2,38.1,29.59,NNE,23,1.1,4.9,37,0.00,,,0.00,WUHU216HW,2013-02-15 19:20:00,
2013-02-15 13:25:00,65.9,38.7,29.59,NE,45,1.6,4.5,37,0.00,,,0.00,WUHU216HW,2013-02-15 19:25:00,
2013-02-15 13:30:00,65.9,37.3,29.59,NNE,23,1.6,4.0,35,0.00,,,0.00,WUHU216HW,2013-02-15 19:30:00,
2013-02-15 13:35:00,65.5,37.7,29.58,SSE,158,1.8,4.3,36,0.00,,,0.00,WUHU216HW,2013-02-15 19:35:00,
2013-02-15 13:40:00,65.9,38.0,29.58,NE,45,2.5,4.3,36,0.00,,,0.00,WUHU216HW,2013-02-15 19:40:00,
2013-02-15 13:45:00,66.4,38.5,29.58,North,0,1.8,3.1,36,0.00,,,0.00,WUHU216HW,2013-02-15 19:45:00,
2013-02-15 13:50:00,67.0,38.3,29.57,NNE,23,1.1,3.4,35,0.00,,,0.00,WUHU216HW,2013-02-15 19:50:00,
2013-02-15 13:55:00,67.0,37.5,29.57,NNE,23,2.5,5.1,34,0.00,,,0.00,WUHU216HW,2013-02-15 19:55:00,
2013-02-15 14:00:00,67.0,37.5,29.57,North,0,3.4,5.1,34,0.00,,,0.00,WUHU216HW,2013-02-15 20:00:00,
2013-02-15 14:05:00,66.8,37.4,29.57,NW,315,2.5,4.0,34,0.00,,,0.00,WUHU216HW,2013-02-15 20:05:00,
2013-02-15 14:10:00,66.4,37.1,29.57,NNE,23,1.8,3.1,34,0.00,,,0.00,WUHU216HW,2013-02-15 20:10:00,
2013-02-15 14:16:00,66.1,36.7,29.57,North,0,1.3,3.6,34,0.00,,,0.00,WUHU216HW,2013-02-15 20:16:00,
2013-02-15 14:21:00,65.9,36.5,29.57,North,0,1.3,3.6,34,0.00,,,0.00,WUHU216HW,2013-02-15 20:21:00,
2013-02-15 14:26:00,65.9,36.5,29.57,North,0,2.5,4.0,34,0.00,,,0.00,WUHU216HW,2013-02-15 20:26:00,
2013-02-15 14:31:00,65.7,36.5,29.57,SE,135,2.0,4.0,34,0.00,,,0.00,WUHU216HW,2013-02-15 20:31:00,
2013-02-15 14:36:00,65.9,36.5,29.57,NE,45,1.8,4.7,34,0.00,,,0.00,WUHU216HW,2013-02-15 20:36:00,
2013-02-15 14:41:00,65.7,36.5,29.57,NW,315,0.7,4.7,34,0.00,,,0.00,WUHU216HW,2013-02-15 20:41:00,
2013-02-15 14:46:00,65.5,36.3,29.57,NE,45,1.8,3.8,34,0.00,,,0.00,WUHU216HW,2013-02-15 20:46:00,
2013-02-15 14:51:00,65.3,36.8,29.57,NNE,23,3.4,3.8,35,0.00,,,0.00,WUHU216HW,2013-02-15 20:51:00,
2013-02-15 14:56:00,65.3,37.5,29.57,North,0,2.5,5.1,36,0.00,,,0.00,WUHU216HW,2013-02-15 20:56:00,
2013-02-15 15:01:00,65.3,37.5,29.57,NNE,23,2.9,5.1,36,0.00,,,0.00,WUHU216HW,2013-02-15 21:01:00,
2013-02-15 15:06:00,65.0,37.2,29.57,NE,45,4.7,4.7,36,0.00,,,0.00,WUHU216HW,2013-02-15 21:06:00,
2013-02-15 15:11:00,64.4,36.7,29.57,North,0,4.0,5.1,36,0.00,,,0.00,WUHU216HW,2013-02-15 21:11:00,
2013-02-15 15:16:00,64.1,37.1,29.57,NE,45,4.3,5.1,37,0.00,,,0.00,WUHU216HW,2013-02-15 21:16:00,
2013-02-15 15:21:00,64.1,37.1,29.57,ENE,68,3.1,4.7,37,0.00,,,0.00,WUHU216HW,2013-02-15 21:21:00,
2013-02-15 15:26:00,64.1,37.1,29.56,NNE,23,1.8,4.3,37,0.00,,,0.00,WUHU216HW,2013-02-15 21:26:00,
2013-02-15 15:31:00,64.1,37.1,29.56,East,90,3.1,4.7,37,0.00,,,0.00,WUHU216HW,2013-02-15 21:31:00,
2013-02-15 15:36:00,63.7,36.8,29.57,North,0,3.6,4.7,37,0.00,,,0.00,WUHU216HW,2013-02-15 21:36:00,
2013-02-15 15:41:00,63.4,37.2,29.57,North,0,4.3,5.6,38,0.00,,,0.00,WUHU216HW,2013-02-15 21:41:00,
2013-02-15 15:46:00,63.0,36.9,29.57,NNE,23,4.7,5.6,38,0.00,,,0.00,WUHU216HW,2013-02-15 21:46:00,
2013-02-15 15:52:00,63.0,37.6,29.57,North,0,4.0,5.8,39,0.00,,,0.00,WUHU216HW,2013-02-15 21:52:00,
2013-02-15 15:57:00,62.6,37.3,29.57,NNW,338,3.8,5.8,39,0.00,,,0.00,WUHU216HW,2013-02-15 21:57:00,
2013-02-15 16:02:00,62.6,37.3,29.57,NNE,23,5.1,5.4,39,0.00,,,0.00,WUHU216HW,2013-02-15 22:02:00,
2013-02-15 16:07:00,62.6,37.3,29.57,NE,45,3.6,6.5,39,0.00,,,0.00,WUHU216HW,2013-02-15 22:07:00,
2013-02-15 16:12:00,63.0,37.6,29.57,NNE,23,3.4,6.5,39,0.00,,,0.00,WUHU216HW,2013-02-15 22:12:00,
2013-02-15 16:17:00,63.4,37.9,29.57,North,0,3.1,6.0,39,0.00,,,0.00,WUHU216HW,2013-02-15 22:17:00,
2013-02-15 16:22:00,63.9,37.7,29.58,NE,45,4.3,6.0,38,0.00,,,0.00,WUHU216HW,2013-02-15 22:22:00,
2013-02-15 16:27:00,63.5,37.4,29.58,ENE,68,3.6,5.6,38,0.00,,,0.00,WUHU216HW,2013-02-15 22:27:00,
2013-02-15 16:32:00,62.8,37.5,29.58,North,0,3.1,6.3,39,0.00,,,0.00,WUHU216HW,2013-02-15 22:32:00,
2013-02-15 16:37:00,62.1,37.5,29.58,NNW,338,4.5,6.3,40,0.00,,,0.00,WUHU216HW,2013-02-15 22:37:00,
2013-02-15 16:42:00,61.6,37.0,29.59,North,0,8.3,8.3,40,0.00,,,0.00,WUHU216HW,2013-02-15 22:42:00,
2013-02-15 16:47:00,61.2,37.3,29.59,North,0,4.3,8.3,41,0.00,,,0.00,WUHU216HW,2013-02-15 22:47:00,
2013-02-15 16:52:00,61.0,37.1,29.59,NNE,23,2.9,7.4,41,0.00,,,0.00,WUHU216HW,2013-02-15 22:52:00,
2013-02-15 16:57:00,61.0,37.7,29.59,North,0,5.4,5.4,42,0.00,,,0.00,WUHU216HW,2013-02-15 22:57:00,
2013-02-15 17:02:00,61.2,37.3,29.59,ESE,113,4.0,6.5,41,0.00,,,0.00,WUHU216HW,2013-02-15 23:02:00,
2013-02-15 17:07:00,61.4,37.5,29.59,NNE,23,5.4,7.8,41,0.00,,,0.00,WUHU216HW,2013-02-15 23:07:00,
2013-02-15 17:12:00,61.2,37.3,29.59,North,0,4.3,7.8,41,0.00,,,0.00,WUHU216HW,2013-02-15 23:12:00,
2013-02-15 17:17:00,60.8,37.5,29.60,NNE,23,4.0,6.3,42,0.00,,,0.00,WUHU216HW,2013-02-15 23:17:00,
2013-02-15 17:22:00,60.5,37.8,29.60,East,90,1.3,6.3,43,0.00,,,0.00,WUHU216HW,2013-02-15 23:22:00,
2013-02-15 17:27:00,60.3,38.2,29.60,North,0,4.0,5.1,44,0.00,,,0.00,WUHU216HW,2013-02-15 23:27:00,
2013-02-15 17:32:00,60.1,38.0,29.60,NNW,338,5.4,6.3,44,0.00,,,0.00,WUHU216HW,2013-02-15 23:32:00,
2013-02-15 17:37:00,59.8,38.3,29.61,NNE,23,4.7,6.3,45,0.00,,,0.00,WUHU216HW,2013-02-15 23:37:00,
2013-02-15 17:42:00,59.2,38.3,29.61,NNW,338,2.5,5.4,46,0.00,,,0.00,WUHU216HW,2013-02-15 23:42:00,
2013-02-15 17:47:00,58.7,38.4,29.61,NNE,23,4.0,5.4,47,0.00,,,0.00,WUHU216HW,2013-02-15 23:47:00,
2013-02-15 17:52:00,58.5,38.9,29.62,North,0,4.5,5.4,48,0.00,,,0.00,WUHU216HW,2013-02-15 23:52:00,
2013-02-15 17:57:00,58.1,39.2,29.62,NNE,23,5.4,6.9,49,0.00,,,0.00,WUHU216HW,2013-02-15 23:57:00,
2013-02-15 18:02:00,57.8,39.3,29.62,SSW,203,4.5,6.9,50,0.00,,,0.00,WUHU216HW,2013-02-16 00:02:00,
2013-02-15 18:07:00,57.2,38.9,29.63,NNE,23,4.7,4.7,50,0.00,,,0.00,WUHU216HW,2013-02-16 00:07:00,
2013-02-15 18:12:00,56.9,39.0,29.63,North,0,5.4,6.3,51,0.00,,,0.00,WUHU216HW,2013-02-16 00:12:00,
2013-02-15 18:18:00,56.5,38.6,29.63,NNE,23,8.5,8.7,51,0.00,,,0.00,WUHU216HW,2013-02-16 00:18:00,
2013-02-15 18:23:00,56.3,38.9,29.63,NE,45,4.3,8.7,52,0.00,,,0.00,WUHU216HW,2013-02-16 00:23:00,
2013-02-15 18:28:00,56.2,38.3,29.64,ENE,68,4.3,5.8,51,0.00,,,0.00,WUHU216HW,2013-02-16 00:28:00,
2013-02-15 18:33:00,55.8,38.3,29.64,North,0,6.9,6.9,52,0.00,,,0.00,WUHU216HW,2013-02-16 00:33:00,
2013-02-15 18:38:00,55.6,38.2,29.65,NNE,23,4.7,7.8,52,0.00,,,0.00,WUHU216HW,2013-02-16 00:38:00,
2013-02-15 18:43:00,55.4,38.5,29.65,North,0,4.3,7.8,53,0.00,,,0.00,WUHU216HW,2013-02-16 00:43:00,
2013-02-15 18:48:00,55.1,38.2,29.65,ENE,68,5.4,6.5,53,0.00,,,0.00,WUHU216HW,2013-02-16 00:48:00,
2013-02-15 18:53:00,54.7,37.8,29.65,NE,45,8.1,8.1,53,0.00,,,0.00,WUHU216HW,2013-02-16 00:53:00,
2013-02-15 18:58:00,54.2,37.8,29.65,NE,45,6.5,8.1,54,0.00,,,0.00,WUHU216HW,2013-02-16 00:58:00,
2013-02-15 19:03:00,54.0,37.6,29.66,North,0,4.0,6.9,54,0.00,,,0.00,WUHU216HW,2013-02-16 01:03:00,
2013-02-15 19:08:00,53.6,37.8,29.66,NNE,23,3.6,6.5,55,0.00,,,0.00,WUHU216HW,2013-02-16 01:08:00,
2013-02-15 19:13:00,53.5,37.6,29.67,NE,45,8.5,8.5,55,0.00,,,0.00,WUHU216HW,2013-02-16 01:13:00,
2013-02-15 19:18:00,53.3,37.4,29.67,NNE,23,2.0,8.5,55,0.00,,,0.00,WUHU216HW,2013-02-16 01:18:00,
2013-02-15 19:23:00,53.1,37.7,29.67,North,0,5.6,8.3,56,0.00,,,0.00,WUHU216HW,2013-02-16 01:23:00,
2013-02-15 19:28:00,52.9,37.6,29.67,NNE,23,4.0,8.3,56,0.00,,,0.00,WUHU216HW,2013-02-16 01:28:00,
2013-02-15 19:33:00,52.7,37.5,29.68,NNW,338,8.1,8.1,56,0.00,,,0.00,WUHU216HW,2013-02-16 01:33:00,
2013-02-15 19:38:00,52.7,37.5,29.68,NE,45,4.0,8.1,56,0.00,,,0.00,WUHU216HW,2013-02-16 01:38:00,
2013-02-15 19:43:00,52.6,37.3,29.68,NE,45,3.6,7.2,56,0.00,,,0.00,WUHU216HW,2013-02-16 01:43:00,
2013-02-15 19:48:00,52.4,37.1,29.69,NNE,23,5.6,6.5,56,0.00,,,0.00,WUHU216HW,2013-02-16 01:48:00,
2013-02-15 19:53:00,52.4,37.1,29.69,North,0,3.4,7.6,56,0.00,,,0.00,WUHU216HW,2013-02-16 01:53:00,
2013-02-15 19:58:00,52.2,36.9,29.69,North,0,6.3,7.6,56,0.00,,,0.00,WUHU216HW,2013-02-16 01:58:00,
2013-02-15 20:03:00,52.2,36.9,29.70,ENE,68,5.4,8.9,56,0.00,,,0.00,WUHU216HW,2013-02-16 02:03:00,
2013-02-15 20:08:00,52.0,36.7,29.70,North,0,3.4,8.9,56,0.00,,,0.00,WUHU216HW,2013-02-16 02:08:00,
2013-02-15 20:13:00,51.8,36.5,29.70,NNE,23,4.0,6.3,56,0.00,,,0.00,WUHU216HW,2013-02-16 02:13:00,
2013-02-15 20:18:00,51.7,36.4,29.71,NNE,23,6.9,7.2,56,0.00,,,0.00,WUHU216HW,2013-02-16 02:18:00,
2013-02-15 20:23:00,51.5,36.2,29.72,NE,45,6.3,7.6,56,0.00,,,0.00,WUHU216HW,2013-02-16 02:23:00,
2013-02-15 20:28:00,51.3,36.1,29.71,NW,315,3.4,7.6,56,0.00,,,0.00,WUHU216HW,2013-02-16 02:28:00,
2013-02-15 20:33:00,51.1,36.4,29.72,NNE,23,7.2,7.8,57,0.00,,,0.00,WUHU216HW,2013-02-16 02:33:00,
2013-02-15 20:38:00,50.9,36.2,29.72,ENE,68,5.6,7.8,57,0.00,,,0.00,WUHU216HW,2013-02-16 02:38:00,
2013-02-15 20:44:00,50.8,36.0,29.72,NNE,23,4.7,7.2,57,0.00,,,0.00,WUHU216HW,2013-02-16 02:44:00,
2013-02-15 20:49:00,50.8,36.0,29.72,North,0,4.0,6.9,57,0.00,,,0.00,WUHU216HW,2013-02-16 02:49:00,
2013-02-15 20:54:00,50.4,35.7,29.72,NNE,23,5.4,5.6,57,0.00,,,0.00,WUHU216HW,2013-02-16 02:54:00,
2013-02-15 20:59:00,50.2,35.6,29.73,ENE,68,5.1,8.3,57,0.00,,,0.00,WUHU216HW,2013-02-16 02:59:00,
2013-02-15 21:04:00,50.2,36.0,29.73,NNE,23,5.8,8.3,58,0.00,,,0.00,WUHU216HW,2013-02-16 03:04:00,
2013-02-15 21:09:00,50.0,35.8,29.73,North,0,7.8,7.8,58,0.00,,,0.00,WUHU216HW,2013-02-16 03:09:00,
2013-02-15 21:14:00,49.9,36.1,29.73,North,0,6.5,9.4,59,0.00,,,0.00,WUHU216HW,2013-02-16 03:14:00,
2013-02-15 21:19:00,49.7,36.4,29.74,NNW,338,6.3,9.4,60,0.00,,,0.00,WUHU216HW,2013-02-16 03:19:00,
2013-02-15 21:24:00,49.3,36.5,29.74,North,0,8.5,8.7,61,0.00,,,0.00,WUHU216HW,2013-02-16 03:24:00,
2013-02-15 21:29:00,49.3,36.8,29.74,NNW,338,7.4,9.4,62,0.00,,,0.00,WUHU216HW,2013-02-16 03:29:00,
2013-02-15 21:34:00,49.0,36.6,29.74,North,0,4.0,9.4,62,0.00,,,0.00,WUHU216HW,2013-02-16 03:34:00,
2013-02-15 21:39:00,49.0,36.6,29.74,NE,45,3.8,8.9,62,0.00,,,0.00,WUHU216HW,2013-02-16 03:39:00,
2013-02-15 21:44:00,48.8,36.0,29.75,NNE,23,3.4,8.9,61,0.00,,,0.00,WUHU216HW,2013-02-16 03:44:00,
2013-02-15 21:49:00,48.8,36.0,29.76,NNW,338,3.6,6.9,61,0.00,,,0.00,WUHU216HW,2013-02-16 03:49:00,
2013-02-15 21:54:00,48.6,35.8,29.76,NNW,338,6.7,6.7,61,0.00,,,0.00,WUHU216HW,2013-02-16 03:54:00,
2013-02-15 21:59:00,48.6,35.8,29.76,NNE,23,6.0,6.9,61,0.00,,,0.00,WUHU216HW,2013-02-16 03:59:00,
2013-02-15 22:04:00,48.6,35.8,29.76,North,0,3.4,6.3,61,0.00,,,0.00,WUHU216HW,2013-02-16 04:04:00,
2013-02-15 22:09:00,48.4,35.3,29.76,NNE,23,8.5,8.5,60,0.00,,,0.00,WUHU216HW,2013-02-16 04:09:00,
2013-02-15 22:14:00,48.2,35.1,29.76,North,0,4.5,8.5,60,0.00,,,0.00,WUHU216HW,2013-02-16 04:14:00,
2013-02-15 22:19:00,48.2,34.7,29.77,ENE,68,7.2,7.2,59,0.00,,,0.00,WUHU216HW,2013-02-16 04:19:00,
2013-02-15 22:24:00,48.2,33.2,29.77,North,0,5.8,7.2,56,0.00,,,0.00,WUHU216HW,2013-02-16 04:24:00,
2013-02-15 22:29:00,48.2,33.2,29.77,North,0,4.0,6.9,56,0.00,,,0.00,WUHU216HW,2013-02-16 04:29:00,
2013-02-15 22:34:00,48.1,33.0,29.77,NNE,23,4.9,8.7,56,0.00,,,0.00,WUHU216HW,2013-02-16 04:34:00,
2013-02-15 22:39:00,47.9,32.9,29.78,NNE,23,4.7,8.7,56,0.00,,,0.00,WUHU216HW,2013-02-16 04:39:00,
2013-02-15 22:44:00,47.9,31.1,29.78,NNE,23,4.9,8.1,52,0.00,,,0.00,WUHU216HW,2013-02-16 04:44:00,
2013-02-15 22:49:00,47.7,28.4,29.78,NE,45,4.7,8.1,47,0.00,,,0.00,WUHU216HW,2013-02-16 04:49:00,
2013-02-15 22:54:00,47.7,26.7,29.78,NW,315,4.5,5.8,44,0.00,,,0.00,WUHU216HW,2013-02-16 04:54:00,
2013-02-15 23:00:00,47.7,26.2,29.78,NE,45,3.1,8.3,43,0.00,,,0.00,WUHU216HW,2013-02-16 05:00:00,
2013-02-15 23:05:00,47.7,25.7,29.78,North,0,4.3,8.3,42,0.00,,,0.00,WUHU216HW,2013-02-16 05:05:00,
2013-02-15 23:10:00,47.7,24.6,29.78,North,0,4.7,5.4,40,0.00,,,0.00,WUHU216HW,2013-02-16 05:10:00,
2013-02-15 23:15:00,47.7,24.6,29.78,NNW,338,4.0,6.3,40,0.00,,,0.00,WUHU216HW,2013-02-16 05:15:00,
2013-02-15 23:20:00,47.5,23.7,29.78,NNE,23,5.4,6.3,39,0.00,,,0.00,WUHU216HW,2013-02-16 05:20:00,
2013-02-15 23:23:00,47.5,23.7,29.78,NNE,23,3.6,6.9,39,0.00,,,0.00,WUHU216HW,2013-02-16 05:23:00,
2013-02-15 23:28:00,47.5,23.0,29.78,NNW,338,6.0,6.9,38,0.00,,,0.00,WUHU216HW,2013-02-16 05:28:00,
2013-02-15 23:33:00,47.5,23.0,29.78,North,0,3.4,6.3,38,0.00,,,0.00,WUHU216HW,2013-02-16 05:33:00,
2013-02-15 23:38:00,47.3,22.9,29.78,NE,45,4.7,7.4,38,0.00,,,0.00,WUHU216HW,2013-02-16 05:38:00,
2013-02-15 23:43:00,47.2,22.7,29.78,North,0,1.8,7.4,38,0.00,,,0.00,WUHU216HW,2013-02-16 05:43:00,
2013-02-15 23:48:00,47.2,22.7,29.78,NE,45,2.5,5.1,38,0.00,,,0.00,WUHU216HW,2013-02-16 05:48:00,
2013-02-15 23:53:00,47.2,22.7,29.78,NNE,23,4.9,4.9,38,0.00,,,0.00,WUHU216HW,2013-02-16 05:53:00,
2013-02-15 23:58:00,47.0,21.9,29.78,NW,315,4.0,4.9,37,0.00,,,0.00,WUHU216HW,2013-02-16 05:58:00,